{"data":{"norad_id":66255,"intl_designator":"2025-245X","name":"STARLINK-35616","alt_names":[],"object_type":"PAYLOAD","status":"ACTIVE","operator":null,"country":"US","launch_date":"2025-10-29","launch_site_code":"AFETR","launch_vehicle":null,"mission":null,"orbit_class":"UNKNOWN","rcs_meters":null,"size_class":null,"mass_kg":null,"dimensions":null,"purposes":["comms"],"wikipedia_slug":null,"has_3d_model":false,"image_url":null,"decayed_at":null,"tle_current":{"epoch":"2026-05-25T02:29:37.301280Z","epoch_age_seconds":76591,"freshness":"FRESH","line1":"1 66255U 25245X   26145.10390395  .00021968  00000+0  75159-3 0  9995","line2":"2 66255  53.1578 289.1128 0001087  84.5150 275.5975 15.30202160 32954","mean_motion":15.3020216,"eccentricity":0.0001087,"inclination_deg":53.1578,"raan_deg":289.1128,"arg_perigee_deg":84.515,"mean_anomaly_deg":275.5975,"bstar":0.00075159,"rev_number":3295,"period_min":94.10521286939,"perigee_km":474.46366138735,"apogee_km":475.95357872515,"semimajor_km":6853.3456200563,"source":"CELESTRAK","updated_at":"2026-05-25T13:38:21.138026Z"}}}